KM4CBK Weather Reports


Display with metric or nautical units.
time (UTC)temp
F
wind
direction
speed
MPH
gust
MPH
rain 1hr
in
rain 24hr
in
rain mn
in
humidity
%
barometer
mb
20260906134549 80 180 0.0 0.0 0.00 0.00 0.00 94 1011.4
20260906134044 80 154 2.0 2.0 0.00 0.00 0.00 94 1011.2
20260906133539 79 180 0.0 3.0 0.00 0.00 0.00 95 1011.4
20260906133034 78 147 0.0 2.0 0.00 0.00 0.00 96 1011.5
20260906132530 78 180 0.0 0.0 0.00 0.00 0.00 97 1011.7
20260906132025 78 169 0.0 0.0 0.00 0.00 0.00 98 1011.7
20260906131520 77 169 0.0 2.0 0.00 0.00 0.00 98 1011.8
20260906131016 77 173 0.0 0.0 0.00 0.00 0.00 99 1011.6
20260906130515 77 165 0.0 0.0 0.00 0.00 0.00 99 1011.6
20260906130010 77 165 0.0 1.0 0.00 0.00 0.00 99 1011.8
20260906125508 76 106 0.0 0.0 0.00 0.00 0.00 99 1011.6
20260906125007 76 106 0.0 1.0 0.00 0.00 0.00 99 1011.7
20260906124503 76 99 0.0 0.0 0.00 0.00 0.00 99 1011.7
20260906123958 75 90 0.0 0.0 0.00 0.00 0.00 99 1011.6
20260906123457 75 157 0.0 1.0 0.00 0.00 0.00 99 1011.8
20260906122957 75 180 0.0 0.0 0.00 0.00 0.00 99 1011.8
20260906122452 75 90 0.0 1.0 0.00 0.00 0.00 99 1011.9
20260906121948 75 157 0.0 0.0 0.00 0.00 0.00 99 1011.9
20260906121444 75 157 0.0 0.0 0.00 0.00 0.00 99 1011.6
20260906120940 75 157 0.0 0.0 0.00 0.00 0.00 99 1011.7
20260906120435 75 157 0.0 1.0 0.00 0.00 0.00 99 1011.8
20260906115932 75 180 0.0 0.0 0.00 0.00 0.00 99 1011.8
20260906115427 74 172 0.0 0.0 0.00 0.00 0.00 99 1011.6
20260906114927 74 106 0.0 1.0 0.00 0.00 0.00 99 1011.6
20260906114426 74 180 0.0 0.0 0.00 0.00 0.00 99 1011.3
20260906113923 74 172 0.0 0.0 0.00 0.00 0.00 99 1011.6
20260906113421 74 172 0.0 0.0 0.00 0.00 0.00 99 1011.6
20260906112918 74 172 0.0 0.0 0.00 0.00 0.00 99 1011.6
20260906112413 74 165 0.0 0.0 0.00 0.00 0.00 99 1011.4
20260906111908 74 165 0.0 0.0 0.00 0.00 0.00 99 1011.6
20260906111408 73 165 0.0 0.0 0.00 0.00 0.00 99 1011.7
20260906110903 73 165 0.0 0.0 0.00 0.00 0.00 99 1011.4
20260906110358 73 165 0.0 0.0 0.00 0.00 0.00 99 1011.4
20260906105857 73 165 0.0 1.0 0.00 0.00 0.00 99 1011.1
20260906105353 73 172 0.0 0.0 0.00 0.00 0.00 99 1011.2
20260906104848 73 172 0.0 0.0 0.00 0.00 0.00 99 1011.4
20260906104347 73 172 0.0 0.0 0.00 0.00 0.00 99 1011.2
20260906103846 73 172 0.0 0.0 0.00 0.00 0.00 99 1011.2
20260906103343 73 157 0.0 1.0 0.00 0.00 0.00 99 1011.1
20260906102840 74 180 0.0 0.0 0.00 0.00 0.00 99 1011.0
20260906102339 73 180 0.0 0.0 0.00 0.00 0.00 99 1011.1
20260906101834 74 180 0.0 0.0 0.00 0.00 0.00 99 1011.0
20260906101329 74 180 0.0 0.0 0.00 0.00 0.00 99 1010.9
20260906100825 73 180 0.0 2.0 0.00 0.00 0.00 99 1010.8
20260906100324 74 0 0.0 0.0 0.00 0.00 0.00 99 1011.0
20260906095819 74 0 0.0 0.0 0.00 0.00 0.00 99 1010.8
20260906095315 74 128 0.0 0.0 0.00 0.00 0.00 99 1011.0
20260906094813 74 128 0.0 0.0 0.00 0.00 0.00 99 1011.0
20260906094309 74 128 0.0 0.0 0.00 0.00 0.00 99 1010.8
20260906093806 74 128 0.0 0.0 0.00 0.00 0.00 99 1011.0
20260906093301 73 270 0.0 0.0 0.00 0.00 0.00 99 1010.7
20260906092755 73 0 0.0 0.0 0.00 0.00 0.00 99 1010.8
20260906092250 73 180 0.0 0.0 0.00 0.00 0.00 99 1010.7
20260906091746 73 180 0.0 0.0 0.00 0.00 0.00 99 1010.6
20260906091242 73 180 0.0 0.0 0.00 0.00 0.00 99 1010.7
20260906090738 73 180 0.0 0.0 0.00 0.00 0.00 99 1010.7
20260906090237 73 180 0.0 0.0 0.00 0.00 0.00 99 1010.5
20260906085736 73 180 0.0 0.0 0.00 0.00 0.00 99 1010.5
20260906085236 73 180 1.0 1.0 0.00 0.00 0.00 99 1010.4
20260906084730 73 180 0.0 0.0 0.00 0.00 0.00 99 1010.5
20260906084224 73 172 0.0 1.0 0.00 0.00 0.00 99 1010.6
20260906083720 73 172 0.0 0.0 0.00 0.00 0.00 99 1010.7
20260906083215 73 180 0.0 0.0 0.00 0.00 0.00 99 1010.8
20260906082710 73 188 0.0 0.0 0.00 0.00 0.00 99 1010.7
20260906082205 73 0 0.0 0.0 0.00 0.00 0.00 99 1010.8
20260906081702 73 254 0.0 1.0 0.00 0.00 0.00 99 1010.9
20260906081156 73 320 0.0 3.0 0.00 0.00 0.00 99 1010.7
20260906080653 73 35 0.0 2.0 0.00 0.00 0.00 99 1011.0
20260906080149 73 180 0.0 0.0 0.00 0.00 0.00 99 1010.8
20260906075648 73 180 0.0 0.0 0.00 0.00 0.00 99 1010.7
20260906075143 73 180 0.0 0.0 0.00 0.00 0.00 99 1010.8
20260906074638 73 180 0.0 0.0 0.00 0.00 0.00 99 1010.8
20260906074137 73 180 0.0 0.0 0.00 0.00 0.00 99 1010.4
20260906073632 73 180 0.0 0.0 0.00 0.00 0.00 99 1010.5
20260906073128 73 188 0.0 0.0 0.00 0.00 0.00 99 1010.6
20260906072622 73 188 0.0 0.0 0.00 0.00 0.00 99 1010.4
20260906072118 73 188 0.0 0.0 0.00 0.00 0.00 99 1010.6
20260906071615 73 188 0.0 0.0 0.00 0.00 0.00 99 1010.2
20260906071109 73 188 0.0 0.0 0.00 0.00 0.00 99 1010.3
20260906070606 73 188 0.0 0.0 0.00 0.00 0.00 99 1010.5
20260906070101 73 173 0.0 1.0 0.00 0.00 0.00 99 1010.5
20260906065600 73 173 0.0 0.0 0.00 0.00 0.00 99 1010.7
20260906065056 73 173 0.0 0.0 0.00 0.00 0.00 99 1010.4
20260906064552 73 83 0.0 0.0 0.00 0.00 0.00 99 1010.5
20260906064046 73 83 0.0 0.0 0.00 0.00 0.00 99 1010.5
20260906063542 74 83 0.0 0.0 0.00 0.00 0.00 99 1010.5
20260906063038 74 83 0.0 0.0 0.00 0.00 0.00 99 1010.5
20260906062533 74 83 0.0 0.0 0.00 0.00 0.00 99 1010.8
20260906062027 74 83 0.0 0.0 0.00 0.00 0.00 99 1010.7
20260906061523 74 83 0.0 0.0 0.00 0.00 0.00 99 1010.6
20260906061022 74 83 0.0 0.0 0.00 0.00 0.00 99 1010.7
20260906060519 74 83 0.0 0.0 0.00 0.00 0.00 99 1010.8
20260906060016 74 83 0.0 0.0 0.00 0.00 0.00 99 1011.3
20260906055511 74 83 0.0 0.0 0.00 0.00 0.00 99 1010.9
20260906055007 74 83 0.0 0.0 0.00 0.00 0.00 99 1011.1
20260906054501 74 90 0.0 1.0 0.00 0.00 0.00 99 1011.2
20260906053956 74 188 0.0 0.0 0.00 0.00 0.00 99 1011.1
20260906053453 74 188 0.0 0.0 0.00 0.00 0.00 99 1011.1
20260906052948 74 188 0.0 0.0 0.00 0.00 0.00 99 1011.2
20260906052444 74 188 0.0 0.0 0.00 0.00 0.00 99 1011.4
20260906051941 74 188 0.0 0.0 0.00 0.00 0.00 99 1011.3
20260906051436 74 188 0.0 0.0 0.00 0.00 0.00 99 1011.5
20260906050932 75 188 0.0 0.0 0.00 0.00 0.00 99 1011.5
20260906050431 75 188 0.0 0.0 0.00 0.00 0.00 99 1011.4
20260906045930 75 188 0.0 0.0 0.00 0.00 0.00 99 1011.3
20260906045429 75 188 0.0 0.0 0.00 0.00 0.00 99 1011.5
20260906044926 75 188 0.0 0.0 0.00 0.00 0.00 99 1011.3
20260906044420 75 188 0.0 0.0 0.00 0.00 0.00 99 1011.3
20260906043916 75 188 0.0 0.0 0.00 0.00 0.00 99 1011.4
20260906043412 75 188 0.0 0.0 0.00 0.00 0.00 99 1011.2
20260906042907 75 240 0.0 0.0 0.00 0.00 0.00 99 1011.3
20260906042406 75 240 0.0 0.0 0.00 0.00 0.00 99 1011.6
20260906041901 75 240 0.0 0.0 0.00 0.00 0.00 99 1011.3
20260906041357 75 240 0.0 1.0 0.00 0.00 0.00 99 1011.4
20260906040851 76 0 0.0 0.0 0.00 0.00 0.00 99 1011.6
20260906040346 75 0 0.0 0.0 0.00 0.00 0.00 99 1011.8
20260906035842 75 0 0.0 0.0 0.00 0.00 0.00 99 1011.7
20260906035337 75 0 0.0 0.0 0.00 0.00 0.00 99 1011.9
20260906034832 75 0 0.0 2.0 0.00 0.00 0.00 99 1011.8
20260906034327 75 352 0.0 0.0 0.00 0.00 0.00 99 1011.8
20260906033823 75 352 0.0 0.0 0.00 0.00 0.00 99 1011.4
20260906033322 76 352 0.0 0.0 0.00 0.00 0.00 99 1011.6
20260906032818 75 352 0.0 0.0 0.00 0.00 0.00 99 1011.5
20260906032314 76 180 0.0 0.0 0.00 0.00 0.00 99 1011.2
20260906031809 76 180 0.0 0.0 0.00 0.00 0.00 99 1011.4
20260906031305 76 180 0.0 0.0 0.00 0.00 0.00 99 1011.4
20260906030804 76 234 0.0 0.0 0.00 0.00 0.00 99 1011.6
20260906030300 76 234 0.0 0.0 0.00 0.00 0.00 99 1011.5
20260906025759 76 234 0.0 0.0 0.00 0.00 0.00 99 1011.4
20260906025253 76 234 0.0 0.0 0.00 0.00 0.00 99 1011.5
20260906024752 76 234 0.0 0.0 0.00 0.00 0.00 99 1011.4
20260906024251 76 234 0.0 0.0 0.00 0.00 0.00 99 1011.4
20260906023747 76 234 0.0 0.0 0.00 0.00 0.00 99 1011.5
20260906023243 76 234 0.0 0.0 0.00 0.00 0.00 99 1011.6
20260906022738 77 234 0.0 0.0 0.00 0.00 0.00 99 1011.3
20260906022233 77 234 0.0 0.0 0.00 0.00 0.00 99 1011.1
20260906021729 77 234 0.0 0.0 0.00 0.00 0.00 99 1011.3
20260906021228 77 234 0.0 0.0 0.00 0.00 0.00 98 1010.9
20260906020723 77 234 0.0 0.0 0.00 0.00 0.00 98 1011.3
20260906020218 77 234 0.0 0.0 0.00 0.00 0.00 98 1011.4
20260906015712 77 234 0.0 0.0 0.00 0.00 0.00 98 1011.0
20260906015210 77 234 0.0 0.0 0.00 0.00 0.00 98 1011.2
20260906014705 77 234 0.0 0.0 0.00 0.00 0.00 98 1011.1
20260906014201 77 234 0.0 0.0 0.00 0.00 0.00 98 1010.8
20260906013657 78 234 0.0 0.0 0.00 0.00 0.00 97 1010.9
20260906013152 78 234 0.0 0.0 0.00 0.00 0.00 97 1010.8
20260906012651 78 234 0.0 0.0 0.00 0.00 0.00 96 1010.7
20260906012146 78 234 0.0 0.0 0.00 0.00 0.00 96 1010.4
20260906011642 78 234 0.0 0.0 0.00 0.00 0.00 96 1010.3
20260906011136 78 234 0.0 0.0 0.00 0.00 0.00 96 1010.4
20260906010631 79 234 0.0 0.0 0.00 0.00 0.00 96 1010.3
20260906010128 79 234 0.0 0.0 0.00 0.00 0.00 96 1010.1
20260906005622 79 234 0.0 0.0 0.00 0.00 0.00 95 1009.9
20260906005121 79 234 0.0 0.0 0.00 0.00 0.00 95 1009.9
20260906004620 79 234 0.0 0.0 0.00 0.00 0.00 94 1010.1
20260906004115 80 234 0.0 0.0 0.00 0.00 0.00 94 1009.6
20260906003611 80 234 0.0 0.0 0.00 0.00 0.00 93 1009.8
20260906003106 80 234 0.0 0.0 0.00 0.00 0.00 93 1009.8
20260906002601 80 234 0.0 0.0 0.00 0.00 0.00 92 1009.8
20260906002056 81 234 0.0 0.0 0.00 0.00 0.00 91 1009.7
20260906001551 81 234 0.0 1.0 0.00 0.00 0.00 90 1009.7
20260906001045 81 151 0.0 0.0 0.00 0.00 0.00 90 1009.9
20260906000541 81 151 0.0 0.0 0.00 0.00 0.00 89 1009.9
20260906000036 82 151 0.0 0.0 0.00 0.00 0.00 88 1010.1
20260905235536 82 151 0.0 0.0 0.00 0.00 0.00 87 1010.2
20260905235031 83 151 0.0 0.0 0.00 0.00 0.00 87 1010.0
20260905234527 83 151 0.0 0.0 0.00 0.00 0.00 85 1010.3
20260905234027 84 151 0.0 0.0 0.00 0.00 0.00 85 1010.2
20260905233521 83 151 0.0 0.0 0.00 0.00 0.00 85 1010.2
20260905233021 84 151 0.0 0.0 0.00 0.00 0.00 84 1010.3
20260905232517 84 175 0.0 2.0 0.00 0.00 0.00 83 1010.2
20260905232012 85 154 0.0 0.0 0.00 0.00 0.00 82 1010.3
20260905231508 84 168 0.0 1.0 0.00 0.00 0.00 82 1010.2
20260905231004 84 166 0.0 3.0 0.00 0.00 0.00 82 1010.3
20260905230503 84 173 0.0 0.0 0.00 0.00 0.00 82 1010.2
20260905230001 85 173 0.0 1.0 0.00 0.00 0.00 81 1010.4
20260905225456 84 175 0.0 2.0 0.00 0.00 0.00 81 1010.4
20260905224951 84 160 0.0 0.0 0.00 0.00 0.00 81 1010.4
20260905224446 85 151 0.0 2.0 0.00 0.00 0.00 81 1010.5
20260905223945 85 165 0.0 3.0 0.00 0.00 0.00 80 1010.6
20260905223443 85 165 0.0 1.0 0.00 0.00 0.00 79 1010.5
20260905222944 86 188 0.0 0.0 0.00 0.00 0.00 79 1010.4
20260905222438 86 90 0.0 4.0 0.00 0.00 0.00 78 1010.3
20260905221934 86 151 0.0 1.0 0.00 0.00 0.00 78 1010.4
20260905221430 87 145 1.0 2.0 0.00 0.00 0.00 76 1010.6
20260905220926 87 180 0.0 2.0 0.00 0.00 0.00 76 1010.3
20260905220422 87 15 0.0 1.0 0.00 0.00 0.00 75 1010.4
20260905215921 87 190 2.0 2.0 0.00 0.00 0.00 74 1010.4
20260905215416 87 159 2.0 3.0 0.00 0.00 0.00 75 1010.3
20260905214913 87 120 1.0 5.0 0.00 0.00 0.00 74 1010.2
20260905214409 88 154 0.0 2.0 0.00 0.00 0.00 74 1010.4
20260905213908 88 175 2.0 2.0 0.00 0.00 0.00 75 1010.4
20260905213405 88 172 0.0 1.0 0.00 0.00 0.00 75 1010.4
20260905212900 88 151 3.0 3.0 0.00 0.00 0.00 75 1010.3
20260905212354 88 169 0.0 2.0 0.00 0.00 0.00 75 1010.3
20260905211847 87 29 0.0 3.0 0.00 0.00 0.00 77 1010.6
20260905211344 87 171 0.0 3.0 0.00 0.00 0.00 77 1010.7
20260905210840 87 157 0.0 1.0 0.00 0.00 0.00 75 1010.6
20260905210340 87 165 0.0 2.0 0.00 0.00 0.00 74 1010.7
20260905205838 87 180 0.0 3.0 0.00 0.00 0.00 75 1010.9
20260905205333 88 164 0.0 4.0 0.00 0.00 0.00 73 1010.9
20260905204833 89 186 0.0 2.0 0.00 0.00 0.00 73 1010.8
20260905204329 88 82 0.0 3.0 0.00 0.00 0.00 76 1010.9
20260905203827 89 180 0.0 6.0 0.00 0.00 0.00 76 1010.9
20260905203324 88 151 2.0 3.0 0.00 0.00 0.00 77 1010.9
20260905202819 89 170 3.0 4.0 0.00 0.00 0.00 75 1010.7
20260905202314 89 124 3.0 3.0 0.00 0.00 0.00 74 1011.0
20260905201809 90 203 0.0 3.0 0.00 0.00 0.00 72 1011.1
20260905201305 90 90 0.0 3.0 0.00 0.00 0.00 73 1011.2
20260905200759 89 123 0.0 6.0 0.00 0.00 0.00 74 1011.4
20260905200255 89 144 0.0 3.0 0.00 0.00 0.00 74 1011.4
20260905195753 88 185 0.0 2.0 0.00 0.00 0.00 75 1011.3
20260905195248 89 186 0.0 5.0 0.00 0.00 0.00 74 1011.5
20260905194744 90 90 2.0 3.0 0.00 0.00 0.00 71 1011.8
20260905194243 89 176 2.0 4.0 0.00 0.00 0.00 74 1011.7
20260905193743 90 144 2.0 4.0 0.00 0.00 0.00 70 1011.7
20260905193238 90 162 2.0 4.0 0.00 0.00 0.00 72 1011.7
20260905192733 91 192 0.0 2.0 0.00 0.00 0.00 71 1011.9
20260905192229 89 180 0.0 2.0 0.00 0.00 0.00 73 1012.1
20260905191729 87 83 0.0 5.0 0.00 0.00 0.00 75 1011.9
20260905191227 88 100 2.0 3.0 0.00 0.00 0.00 75 1011.9
20260905190726 87 200 0.0 3.0 0.00 0.00 0.00 75 1012.3
20260905190225 86 8 0.0 3.0 0.00 0.00 0.00 78 1012.1
20260905185724 86 127 4.0 5.0 0.00 0.00 0.00 77 1012.2
20260905185219 84 70 3.0 5.0 0.00 0.00 0.00 81 1012.4
20260905184713 85 184 2.0 5.0 0.00 0.00 0.00 81 1012.4
20260905184212 83 229 0.0 2.0 0.00 0.00 0.00 84 1012.6
20260905183706 82 270 0.0 1.0 0.00 0.00 0.00 87 1012.6
20260905183201 81 307 2.0 3.0 0.00 0.00 0.00 87 1012.6
20260905182701 82 199 3.0 3.0 0.00 0.00 0.00 87 1012.6
20260905182201 81 225 0.0 2.0 0.00 0.00 0.00 88 1013.0
20260905181656 81 185 2.0 3.0 0.00 0.00 0.00 88 1012.9
20260905181155 81 173 0.0 3.0 0.00 0.00 0.00 89 1013.3
20260905180650 81 171 0.0 3.0 0.00 0.00 0.00 89 1013.2
20260905180145 81 125 3.0 5.0 0.00 0.00 0.00 88 1013.3
20260905175644 82 157 1.0 4.0 0.00 0.00 0.00 87 1013.6
20260905175140 82 255 1.0 3.0 0.00 0.00 0.00 87 1013.5
20260905174635 81 200 0.0 2.0 0.00 0.00 0.00 89 1013.7
20260905174131 81 199 3.0 4.0 0.00 0.00 0.00 89 1013.9
20260905173626 81 185 0.0 3.0 0.00 0.00 0.00 89 1013.9
20260905173122 81 165 2.0 5.0 0.00 0.00 0.00 89 1014.1
20260905172621 81 220 0.0 4.0 0.00 0.00 0.00 90 1013.9
20260905172116 81 123 3.0 7.0 0.00 0.00 0.00 89 1014.0
20260905171612 81 166 1.0 3.0 0.00 0.00 0.00 90 1014.3
20260905171108 80 180 2.0 3.0 0.00 0.00 0.00 90 1014.1
20260905170604 80 213 2.0 3.0 0.00 0.00 0.00 90 1014.3
20260905170100 81 188 0.0 2.0 0.00 0.00 0.00 90 1014.6
20260905165600 80 165 2.0 10.0 0.00 0.00 0.00 90 1014.4
20260905165054 82 174 0.0 2.0 0.00 0.00 0.00 88 1014.3
20260905164550 82 66 2.0 5.0 0.00 0.00 0.00 88 1014.1
20260905164044 82 139 2.0 4.0 0.00 0.00 0.00 86 1014.1
20260905163540 82 185 2.0 2.0 0.00 0.00 0.00 87 1014.1
20260905163036 82 8 0.0 3.0 0.00 0.00 0.00 88 1014.2
20260905162532 81 115 2.0 2.0 0.00 0.00 0.00 89 1014.1
20260905162021 81 349 0.0 4.0 0.00 0.00 0.00 90 1014.6
20260905161521 81 212 0.0 2.0 0.00 0.00 0.00 90 1014.4
20260905161018 80 251 2.0 2.0 0.00 0.00 0.00 92 1014.5
20260905160512 80 121 0.0 3.0 0.00 0.00 0.00 93 1014.7
20260905160012 79 147 4.0 4.0 0.00 0.00 0.00 93 1014.7
20260905155506 79 201 0.0 3.0 0.00 0.00 0.00 93 1015.0
20260905155004 79 140 0.0 5.0 0.00 0.00 0.00 93 1014.7
20260905154500 79 192 2.0 6.0 0.00 0.00 0.00 92 1014.5
20260905153955 80 165 0.0 2.0 0.00 0.00 0.00 91 1014.7
20260905153452 80 106 0.0 4.0 0.00 0.00 0.00 91 1014.3
20260905152951 80 169 2.0 6.0 0.00 0.00 0.00 91 1014.1
20260905152451 81 195 2.0 2.0 0.00 0.00 0.00 90 1014.0
20260905151946 81 194 0.0 2.0 0.00 0.00 0.00 90 1014.1
20260905151441 81 168 1.0 3.0 0.00 0.00 0.00 88 1014.0
20260905150936 81 49 0.0 3.0 0.00 0.00 0.00 89 1014.0
20260905150437 81 216 0.0 4.0 0.00 0.00 0.00 89 1013.8
20260905145932 82 204 2.0 4.0 0.00 0.00 0.00 87 1013.9
20260905145427 82 169 2.0 3.0 0.00 0.00 0.00 88 1013.7
20260905144927 82 220 0.0 2.0 0.00 0.00 0.00 89 1013.5
20260905144423 81 297 0.0 3.0 0.00 0.00 0.00 89 1013.8
20260905143921 81 180 0.0 4.0 0.00 0.00 0.00 90 1013.7
20260905143421 81 168 0.0 3.0 0.00 0.00 0.00 90 1013.6
20260905142915 81 165 2.0 2.0 0.00 0.00 0.00 89 1013.5
20260905142414 81 106 5.0 5.0 0.00 0.00 0.00 90 1013.6
20260905141910 80 188 0.0 2.0 0.00 0.00 0.00 90 1013.5
20260905141404 80 197 0.0 4.0 0.00 0.00 0.00 91 1013.2
20260905140901 80 228 0.0 3.0 0.00 0.00 0.00 91 1013.3
20260905140355 81 172 2.0 2.0 0.00 0.00 0.00 92 1013.2
20260905135854 80 180 0.0 2.0 0.00 0.00 0.00 92 1013.2
20260905135350 80 220 0.0 2.0 0.00 0.00 0.00 93 1013.6